Simultaneous Nadir Overpasses (SNOs) Predictions

Prediction of SNOs near US between AQUA and NPP Satellite Orbit:

Table of predicted SNOs near US for the next 10.0 days since TLE Epoch: 2/2/2018
Index Date (AQUA) Time (AQUA) AQUA Lat,Lon Date (NPP) Time (NPP) NPP Lat,Lon Distance(km) Time Diff (sec)
1 02/07/2018 07:19:12 49.93, -75.95 02/07/2018 07:20:01 50.33, -78.17 164.49 49
2 02/07/2018 08:58:05 49.94,-100.67 02/07/2018 09:01:28 50.50,-103.47 208.87 203
3 02/09/2018 18:17:23 49.99, -80.21 02/09/2018 18:10:15 49.70, -81.71 112.59 428
4 02/09/2018 19:56:16 49.98,-104.93 02/09/2018 19:51:43 49.59,-107.04 157.79 273
5 02/09/2018 21:31:25 36.62,-124.99 02/09/2018 21:29:21 36.16,-127.52 232.81 124
6 02/12/2018 09:24:59 20.01,-114.23 02/12/2018 09:16:39 19.36,-114.87 98.52 500




NCC Satellite Simultaneous Nadir Overpasses (SNOs) Prediction Service
